CCA4580 RJTT-CYVR

Flight info

Callsign CCA4580
Flight time N/A
Altitude 33000
Route INUBO Y808 PUTER/N0488F340 A590 PUGAL/N0481F350 A590 PINSO DCT AMOND A342 CDB/N0484F370 DCT 55N160W 54N150W 52N140W DCT NUDGE DCT POWOL WHSLR7
Aircraft A346/H-SDE2E3FGHIJ3J4J5M1RWXY/LB1D1

Departure

Time N/A
Airport Tokyo Haneda International Airport (RJTT)

Arrival

Time 2026-05-08 02:25
Airport Vancouver International Airport (CYVR)
Time Latitude Longitude Altitude Speed Heading
2026-05-07 21:22 52.74647 171.94380 34862 ft 537 kts 42°
2026-05-07 21:22 52.77044 171.99112 34937 ft 536 kts 42°
2026-05-07 21:23 52.81841 172.08604 35067 ft 537 kts 42°
2026-05-07 21:23 52.86641 172.18138 35143 ft 537 kts 42°
2026-05-07 21:24 52.91389 172.27597 35174 ft 536 kts 42°
2026-05-07 21:24 52.96156 172.37134 35186 ft 536 kts 42°
2026-05-07 21:25 53.00917 172.46693 35191 ft 536 kts 42°
2026-05-07 21:25 53.05642 172.56220 35191 ft 537 kts 43°
2026-05-07 21:26 53.10391 172.65836 35192 ft 537 kts 43°
2026-05-07 21:26 53.15142 172.75497 35195 ft 538 kts 43°
2026-05-07 21:27 53.19876 172.85155 35196 ft 537 kts 43°
2026-05-07 21:27 53.24575 172.94765 35196 ft 533 kts 44°
2026-05-07 21:28 53.29257 173.04379 35193 ft 529 kts 44°
2026-05-07 21:28 53.33880 173.13933 35192 ft 526 kts 44°
2026-05-07 21:29 53.38486 173.23488 35193 ft 528 kts 44°
2026-05-07 21:29 53.43094 173.33089 35194 ft 528 kts 44°
2026-05-07 21:30 53.47642 173.42741 35194 ft 531 kts 47°
2026-05-07 21:30 53.51641 173.53221 35192 ft 539 kts 55°
2026-05-07 21:31 53.54868 173.64729 35193 ft 544 kts 63°
2026-05-07 21:31 53.57217 173.76898 35194 ft 550 kts 70°
2026-05-07 21:32 53.59228 173.89325 35194 ft 550 kts 71°
2026-05-07 21:32 53.61218 174.01712 35194 ft 549 kts 70°
2026-05-07 21:33 53.63232 174.14149 35194 ft 550 kts 70°
2026-05-07 21:33 53.65239 174.26572 35195 ft 549 kts 70°
2026-05-07 21:34 53.67254 174.39067 35193 ft 549 kts 70°
2026-05-07 21:34 53.69244 174.51535 35194 ft 549 kts 70°
2026-05-07 21:35 53.71205 174.63917 35192 ft 549 kts 70°
2026-05-07 21:35 53.73178 174.76450 35194 ft 549 kts 71°
2026-05-07 21:36 53.75118 174.88907 35193 ft 549 kts 71°
2026-05-07 21:36 53.77045 175.01352 35195 ft 549 kts 71°
2026-05-07 21:37 53.78960 175.13796 35197 ft 544 kts 71°
2026-05-07 21:37 53.80846 175.26132 35195 ft 537 kts 71°
2026-05-07 21:38 53.82693 175.38354 35193 ft 536 kts 72°
2026-05-07 21:38 53.84531 175.50629 35194 ft 536 kts 71°
2026-05-07 21:39 53.86362 175.62926 35193 ft 536 kts 71°
2026-05-07 21:39 53.88173 175.75176 35192 ft 536 kts 72°
2026-05-07 21:40 53.89968 175.87425 35193 ft 536 kts 72°
2026-05-07 21:40 53.91762 175.99741 35194 ft 536 kts 72°
2026-05-07 21:41 53.93536 176.12028 35194 ft 536 kts 72°
2026-05-07 21:41 53.95296 176.24313 35193 ft 536 kts 72°
2026-05-07 21:42 53.97053 176.36671 35194 ft 536 kts 72°
2026-05-07 21:42 53.98792 176.49011 35194 ft 536 kts 72°
2026-05-07 21:43 54.00512 176.61314 35193 ft 536 kts 72°
2026-05-07 21:43 54.02223 176.73648 35192 ft 536 kts 73°
2026-05-07 21:44 54.03925 176.86012 35179 ft 537 kts 73°
2026-05-07 21:44 54.05613 176.98358 35066 ft 534 kts 73°
2026-05-07 21:45 54.07278 177.10608 34985 ft 528 kts 74°
2026-05-07 21:45 54.08909 177.22777 34942 ft 524 kts 74°
2026-05-07 21:46 54.10507 177.34845 34924 ft 523 kts 74°
2026-05-07 21:46 54.12103 177.46965 34917 ft 523 kts 74°
2026-05-07 21:47 54.13687 177.59085 34913 ft 523 kts 74°
2026-05-07 21:47 54.15264 177.71246 34910 ft 523 kts 75°
2026-05-07 21:48 54.16816 177.83337 34909 ft 523 kts 75°
2026-05-07 21:48 54.18364 177.95473 34911 ft 523 kts 75°
2026-05-07 21:49 54.19897 178.07626 34910 ft 524 kts 75°
2026-05-07 21:49 54.21427 178.19864 34911 ft 524 kts 75°
2026-05-07 21:50 54.22934 178.31985 34909 ft 523 kts 75°
2026-05-07 21:50 54.24528 178.44098 34911 ft 523 kts 74°
2026-05-07 21:51 54.26140 178.56279 34910 ft 523 kts 74°
2026-05-07 21:51 54.27723 178.68413 34909 ft 523 kts 75°
2026-05-07 21:52 54.29283 178.80553 34909 ft 523 kts 75°
2026-05-07 21:52 54.30832 178.92697 34912 ft 520 kts 75°
2026-05-07 21:53 54.32354 179.04707 34912 ft 515 kts 75°
2026-05-07 21:53 54.33854 179.16685 34910 ft 513 kts 75°
2026-05-07 21:54 54.35338 179.28679 34910 ft 513 kts 75°
2026-05-07 21:54 54.36806 179.40624 34910 ft 513 kts 75°
2026-05-07 21:55 54.38263 179.52582 34910 ft 513 kts 75°
2026-05-07 21:55 54.39711 179.64563 34910 ft 513 kts 75°
2026-05-07 21:56 54.41150 179.76570 34910 ft 513 kts 76°
2026-05-07 21:56 54.42573 179.88565 34910 ft 513 kts 76°
2026-05-07 21:57 54.43988 -179.99406 34911 ft 513 kts 76°
2026-05-07 21:57 54.45381 -179.87425 34892 ft 507 kts 76°
2026-05-07 21:58 54.46751 -179.75549 34874 ft 506 kts 76°
2026-05-07 21:58 54.48111 -179.63641 34863 ft 506 kts 76°
2026-05-07 21:59 54.49456 -179.51772 34857 ft 506 kts 76°
2026-05-07 21:59 54.50790 -179.39891 34856 ft 507 kts 77°
2026-05-07 22:00 54.52117 -179.27956 34855 ft 507 kts 77°
2026-05-07 22:00 54.53438 -179.15976 34855 ft 506 kts 76°
2026-05-07 22:01 54.54738 -179.04069 34856 ft 506 kts 76°
2026-05-07 22:01 54.56033 -178.92094 34856 ft 507 kts 77°
2026-05-07 22:02 54.57311 -178.80164 34855 ft 506 kts 76°
2026-05-07 22:02 54.58571 -178.68268 34856 ft 506 kts 76°
2026-05-07 22:03 54.59833 -178.56238 34855 ft 506 kts 76°
2026-05-07 22:03 54.61069 -178.44327 34854 ft 507 kts 77°
2026-05-07 22:04 54.62304 -178.32294 34855 ft 507 kts 77°
2026-05-07 22:04 54.63524 -178.20285 34855 ft 507 kts 77°
2026-05-07 22:05 54.64728 -178.08356 34856 ft 507 kts 77°
2026-05-07 22:05 54.65971 -177.96372 34856 ft 506 kts 77°
2026-05-07 22:06 54.67206 -177.84340 34855 ft 507 kts 77°
2026-05-07 22:06 54.68419 -177.72366 34855 ft 506 kts 77°
2026-05-07 22:07 54.69621 -177.60338 34855 ft 506 kts 77°
2026-05-07 22:07 54.70802 -177.48389 34855 ft 506 kts 77°
2026-05-07 22:08 54.71978 -177.36359 34854 ft 506 kts 77°
2026-05-07 22:08 54.73147 -177.24268 34855 ft 507 kts 78°
2026-05-07 22:09 54.74296 -177.12259 34855 ft 507 kts 78°
2026-05-07 22:09 54.75436 -177.00227 34857 ft 503 kts 78°
2026-05-07 22:10 54.76554 -176.88342 34858 ft 497 kts 78°
2026-05-07 22:10 54.77651 -176.76512 34856 ft 495 kts 78°
2026-05-07 22:11 54.78724 -176.64734 34856 ft 495 kts 78°
2026-05-07 22:11 54.79789 -176.52936 34855 ft 495 kts 78°
2026-05-07 22:12 54.80837 -176.41219 34854 ft 494 kts 78°
2026-05-07 22:12 54.81882 -176.29405 34855 ft 495 kts 79°
2026-05-07 22:13 54.82917 -176.17572 34856 ft 495 kts 79°
2026-05-07 22:13 54.83939 -176.05751 34855 ft 495 kts 79°
2026-05-07 22:14 54.84949 -175.93935 34855 ft 495 kts 79°
2026-05-07 22:14 54.85951 -175.82071 34855 ft 495 kts 79°
2026-05-07 22:15 54.86940 -175.70213 34860 ft 495 kts 79°
2026-05-07 22:15 54.87917 -175.58357 34870 ft 495 kts 79°
2026-05-07 22:16 54.88880 -175.46519 34875 ft 495 kts 79°
2026-05-07 22:16 54.89831 -175.34705 34878 ft 494 kts 80°
2026-05-07 22:17 54.90773 -175.22865 34880 ft 493 kts 80°
2026-05-07 22:17 54.91696 -175.11073 34881 ft 492 kts 80°
2026-05-07 22:18 54.93061 -174.93419 34881 ft 489 kts 80°
2026-05-07 22:19 54.93951 -174.81665 34881 ft 488 kts 80°
2026-05-07 22:19 54.94828 -174.69955 34881 ft 487 kts 80°
2026-05-07 22:20 54.95684 -174.58337 34880 ft 485 kts 80°
2026-05-07 22:20 54.96534 -174.46684 34879 ft 484 kts 80°
2026-05-07 22:21 54.97373 -174.35028 34878 ft 484 kts 80°
2026-05-07 22:21 54.98199 -174.23372 34880 ft 483 kts 81°
2026-05-07 22:22 54.99009 -174.11789 34881 ft 482 kts 81°
2026-05-07 22:22 54.99810 -174.00186 34880 ft 481 kts 81°
2026-05-07 22:23 55.00595 -173.88637 34880 ft 480 kts 81°
2026-05-07 22:23 55.01369 -173.77083 34880 ft 479 kts 81°
2026-05-07 22:24 55.02134 -173.65495 34879 ft 478 kts 81°
2026-05-07 22:24 55.02883 -173.53995 34880 ft 477 kts 82°
2026-05-07 22:25 55.03619 -173.42522 34879 ft 477 kts 82°
2026-05-07 22:25 55.04346 -173.30986 34881 ft 476 kts 82°
2026-05-07 22:26 55.05061 -173.19459 34880 ft 477 kts 82°
2026-05-07 22:26 55.05764 -173.07971 34881 ft 476 kts 82°
2026-05-07 22:27 55.06457 -172.96487 34881 ft 476 kts 83°
2026-05-07 22:27 55.07149 -172.84912 34888 ft 477 kts 83°
2026-05-07 22:28 55.07814 -172.73473 34907 ft 477 kts 84°
2026-05-07 22:28 55.08472 -172.61914 34951 ft 477 kts 84°
2026-05-07 22:29 55.09125 -172.50313 35019 ft 477 kts 84°
2026-05-07 22:29 55.09759 -172.38837 35074 ft 476 kts 84°
2026-05-07 22:30 55.10386 -172.27321 35101 ft 477 kts 84°
2026-05-07 22:30 55.11005 -172.15753 35113 ft 477 kts 84°
2026-05-07 22:31 55.11613 -172.04190 35118 ft 477 kts 84°
2026-05-07 22:31 55.12209 -171.92690 35118 ft 477 kts 84°
2026-05-07 22:32 55.12794 -171.81120 35117 ft 477 kts 84°
2026-05-07 22:32 55.13370 -171.69539 35111 ft 477 kts 84°
2026-05-07 22:33 55.13936 -171.57924 35107 ft 477 kts 84°
2026-05-07 22:33 55.14488 -171.46350 35101 ft 477 kts 84°
2026-05-07 22:34 55.15027 -171.34781 35098 ft 477 kts 85°
2026-05-07 22:34 55.15553 -171.23253 35095 ft 477 kts 85°
2026-05-07 22:35 55.16070 -171.11684 35095 ft 477 kts 85°
2026-05-07 22:35 55.16580 -171.00076 35096 ft 476 kts 85°
2026-05-07 22:36 55.17077 -170.88542 35095 ft 474 kts 86°
2026-05-07 22:36 55.17588 -170.77046 35096 ft 473 kts 86°
2026-05-07 22:37 55.18097 -170.65590 35094 ft 473 kts 86°
2026-05-07 22:37 55.18593 -170.54106 35095 ft 473 kts 86°
2026-05-07 22:38 55.19076 -170.42615 35096 ft 473 kts 86°
2026-05-07 22:38 55.19547 -170.31122 35096 ft 473 kts 87°
2026-05-07 22:39 55.20006 -170.19630 35095 ft 473 kts 87°
2026-05-07 22:39 55.20457 -170.08115 35095 ft 473 kts 87°
2026-05-07 22:40 55.20896 -169.96582 35095 ft 473 kts 87°
2026-05-07 22:40 55.21324 -169.85100 35096 ft 473 kts 87°
2026-05-07 22:41 55.21740 -169.73625 35094 ft 473 kts 87°
2026-05-07 22:41 55.22146 -169.62087 35094 ft 473 kts 87°
2026-05-07 22:42 55.22543 -169.50551 35095 ft 473 kts 87°
2026-05-07 22:42 55.22926 -169.39085 35095 ft 473 kts 87°
2026-05-07 22:43 55.23298 -169.27589 35091 ft 473 kts 88°
2026-05-07 22:43 55.23661 -169.16042 35095 ft 473 kts 88°
2026-05-07 22:44 55.24020 -169.04523 35094 ft 472 kts 89°
2026-05-07 22:44 55.24364 -168.93050 35090 ft 472 kts 89°
2026-05-07 22:45 55.24688 -168.81569 35094 ft 472 kts 89°
2026-05-07 22:45 55.25004 -168.70026 35096 ft 471 kts 89°
2026-05-07 22:46 55.25309 -168.58589 35095 ft 471 kts 89°
2026-05-07 22:46 55.25603 -168.47151 35095 ft 471 kts 89°
2026-05-07 22:47 55.25890 -168.35629 35095 ft 471 kts 89°
2026-05-07 22:47 55.26166 -168.24104 35095 ft 471 kts 90°
2026-05-07 22:48 55.26430 -168.12627 35092 ft 471 kts 90°
2026-05-07 22:48 55.26682 -168.01167 35083 ft 471 kts 90°
2026-05-07 22:49 55.26927 -167.89618 35070 ft 471 kts 90°
2026-05-07 22:49 55.27158 -167.78125 35057 ft 471 kts 90°
2026-05-07 22:50 55.27379 -167.66661 35046 ft 471 kts 90°
2026-05-07 22:50 55.27589 -167.55194 35037 ft 471 kts 90°
2026-05-07 22:51 55.27788 -167.43683 35033 ft 471 kts 90°
2026-05-07 22:51 55.27976 -167.32165 35031 ft 471 kts 91°
2026-05-07 22:52 55.28155 -167.20636 35031 ft 471 kts 91°
2026-05-07 22:52 55.28322 -167.09168 35030 ft 471 kts 91°
2026-05-07 22:53 55.28480 -166.97669 35030 ft 471 kts 91°
2026-05-07 22:53 55.28630 -166.86183 35030 ft 471 kts 91°
2026-05-07 22:54 55.28767 -166.74713 35031 ft 470 kts 92°
2026-05-07 22:54 55.28886 -166.63209 35031 ft 469 kts 92°
2026-05-07 22:55 55.28995 -166.51733 35031 ft 470 kts 92°
2026-05-07 22:55 55.29097 -166.40218 35029 ft 470 kts 92°
2026-05-07 22:56 55.29188 -166.28792 35031 ft 470 kts 93°
2026-05-07 22:56 55.29268 -166.17334 35030 ft 470 kts 93°
2026-05-07 22:57 55.29337 -166.05852 35029 ft 470 kts 93°
2026-05-07 22:57 55.29396 -165.94301 35030 ft 469 kts 93°
2026-05-07 22:58 55.29444 -165.82906 35030 ft 470 kts 93°
2026-05-07 22:58 55.29480 -165.71381 35030 ft 470 kts 93°
2026-05-07 22:59 55.29509 -165.59877 35031 ft 469 kts 93°
2026-05-07 22:59 55.29524 -165.48415 35031 ft 469 kts 93°
2026-05-07 23:00 55.29529 -165.36961 35030 ft 469 kts 93°
2026-05-07 23:00 55.29522 -165.25478 35031 ft 469 kts 94°
2026-05-07 23:01 55.29508 -165.14040 35028 ft 468 kts 94°
2026-05-07 23:01 55.29481 -165.02574 35029 ft 469 kts 94°
2026-05-07 23:02 55.29442 -164.91069 35027 ft 472 kts 94°
2026-05-07 23:02 55.29390 -164.79489 35030 ft 475 kts 94°
2026-05-07 23:03 55.29330 -164.67905 35031 ft 475 kts 94°
2026-05-07 23:03 55.29261 -164.56325 35036 ft 475 kts 94°
2026-05-07 23:04 55.29178 -164.44717 35039 ft 474 kts 94°
2026-05-07 23:04 55.29086 -164.33166 35044 ft 475 kts 95°
2026-05-07 23:05 55.28980 -164.21529 35047 ft 475 kts 95°
2026-05-07 23:05 55.28866 -164.09969 35047 ft 474 kts 95°
2026-05-07 23:06 55.28739 -163.98360 35048 ft 475 kts 95°
2026-05-07 23:06 55.28603 -163.86852 35047 ft 474 kts 95°
2026-05-07 23:07 55.28456 -163.75272 35047 ft 474 kts 95°
2026-05-07 23:07 55.28295 -163.63673 35049 ft 474 kts 95°
2026-05-07 23:08 55.28126 -163.52153 35048 ft 474 kts 95°
2026-05-07 23:08 55.27943 -163.40550 35048 ft 474 kts 95°
2026-05-07 23:09 55.27750 -163.28937 35048 ft 474 kts 96°
2026-05-07 23:09 55.27547 -163.17380 35047 ft 474 kts 96°
2026-05-07 23:10 55.27332 -163.05832 35048 ft 474 kts 96°
2026-05-07 23:10 55.27105 -162.94308 35048 ft 474 kts 96°
2026-05-07 23:11 55.26860 -162.82762 35046 ft 473 kts 97°
2026-05-07 23:11 55.26238 -162.71289 35048 ft 469 kts 102°
2026-05-07 23:12 55.25286 -162.60013 35049 ft 470 kts 102°
2026-05-07 23:12 55.24307 -162.48659 35047 ft 469 kts 102°
2026-05-07 23:13 55.23321 -162.37363 35048 ft 469 kts 102°
2026-05-07 23:13 55.22322 -162.26059 35047 ft 469 kts 103°
2026-05-07 23:14 55.21310 -162.14726 35047 ft 470 kts 103°
2026-05-07 23:14 55.20296 -162.03485 35047 ft 469 kts 103°
2026-05-07 23:15 55.19258 -161.92148 35319 ft 470 kts 103°
2026-05-07 23:15 55.18737 -161.86490 35537 ft 468 kts 103°
2026-05-07 23:15 55.18217 -161.80884 35698 ft 468 kts 103°
2026-05-07 23:15 55.17694 -161.75267 35836 ft 467 kts 103°
2026-05-07 23:16 55.17169 -161.69653 35992 ft 467 kts 103°
2026-05-07 23:16 55.16640 -161.64026 36143 ft 466 kts 103°
2026-05-07 23:16 55.16118 -161.58478 36265 ft 466 kts 103°
2026-05-07 23:17 55.15056 -161.47324 36446 ft 466 kts 103°
2026-05-07 23:17 55.13978 -161.36092 36639 ft 466 kts 103°
2026-05-07 23:17 55.13434 -161.30482 36764 ft 466 kts 103°
2026-05-07 23:18 55.12893 -161.24916 36886 ft 465 kts 103°
2026-05-07 23:18 55.11794 -161.13705 37039 ft 466 kts 104°
2026-05-07 23:19 55.10685 -161.02492 37046 ft 466 kts 104°
2026-05-07 23:19 55.09576 -160.91336 37050 ft 467 kts 104°
2026-05-07 23:20 55.08454 -160.80182 37048 ft 468 kts 105°
2026-05-07 23:20 55.07302 -160.68916 37050 ft 470 kts 105°
2026-05-07 23:21 55.06144 -160.57680 37051 ft 469 kts 104°
2026-05-07 23:21 55.04979 -160.46464 37051 ft 470 kts 105°
2026-05-07 23:22 55.03803 -160.35269 37051 ft 470 kts 105°
2026-05-07 23:22 55.02616 -160.24080 37049 ft 470 kts 105°
2026-05-07 23:23 55.01415 -160.12877 37049 ft 470 kts 105°
2026-05-07 23:23 55.00231 -160.01625 37049 ft 472 kts 104°
2026-05-07 23:24 54.99468 -159.90266 37050 ft 474 kts 100°
2026-05-07 23:24 54.98808 -159.78796 37050 ft 474 kts 101°
2026-05-07 23:25 54.98136 -159.67394 37049 ft 474 kts 101°
2026-05-07 23:25 54.97449 -159.55931 37050 ft 475 kts 101°
2026-05-07 23:26 54.96749 -159.44476 37051 ft 475 kts 101°
2026-05-07 23:26 54.96041 -159.33040 37051 ft 474 kts 101°
2026-05-07 23:27 54.94960 -159.15959 37049 ft 474 kts 101°
2026-05-07 23:27 54.94225 -159.04561 37049 ft 475 kts 102°
2026-05-07 23:28 54.93480 -158.93114 37050 ft 476 kts 102°
2026-05-07 23:28 54.92721 -158.81680 37050 ft 476 kts 102°
2026-05-07 23:29 54.91943 -158.70186 37050 ft 477 kts 102°
2026-05-07 23:29 54.91161 -158.58757 37050 ft 477 kts 102°
2026-05-07 23:30 54.90371 -158.47360 37051 ft 477 kts 102°
2026-05-07 23:30 54.89563 -158.35873 37052 ft 477 kts 102°
2026-05-07 23:31 54.88748 -158.24411 37051 ft 476 kts 103°
2026-05-07 23:31 54.87926 -158.13005 37050 ft 476 kts 103°
2026-05-07 23:32 54.87097 -158.01678 37050 ft 475 kts 103°
2026-05-07 23:32 54.86248 -157.90245 37053 ft 476 kts 103°
2026-05-07 23:33 54.85393 -157.78845 37056 ft 476 kts 103°
2026-05-07 23:33 54.84525 -157.67444 37057 ft 476 kts 103°
2026-05-07 23:34 54.83648 -157.56071 37059 ft 477 kts 103°
2026-05-07 23:34 54.82761 -157.44679 37057 ft 476 kts 103°
2026-05-07 23:35 54.81858 -157.33260 37059 ft 476 kts 104°
2026-05-07 23:35 54.80953 -157.21921 37060 ft 475 kts 104°
2026-05-07 23:36 54.80035 -157.10524 37059 ft 476 kts 104°
2026-05-07 23:36 54.79112 -156.99165 37059 ft 476 kts 105°
2026-05-07 23:37 54.78173 -156.87822 37059 ft 475 kts 106°
2026-05-07 23:37 54.77211 -156.76462 37059 ft 476 kts 106°
2026-05-07 23:38 54.76246 -156.65117 37056 ft 477 kts 106°
2026-05-07 23:38 54.75267 -156.53726 37059 ft 476 kts 106°
2026-05-07 23:39 54.74288 -156.42397 37055 ft 475 kts 106°
2026-05-07 23:39 54.73296 -156.31126 37059 ft 475 kts 107°
2026-05-07 23:40 54.72290 -156.19783 37057 ft 475 kts 107°
2026-05-07 23:40 54.71279 -156.08514 37060 ft 475 kts 107°
2026-05-07 23:41 54.70253 -155.97206 37058 ft 476 kts 107°
2026-05-07 23:41 54.69218 -155.85902 37060 ft 474 kts 107°
2026-05-07 23:42 54.68174 -155.74649 37061 ft 475 kts 107°
2026-05-07 23:42 54.67115 -155.63335 37063 ft 476 kts 107°
2026-05-07 23:43 54.66050 -155.52078 37067 ft 476 kts 107°
2026-05-07 23:43 54.64976 -155.40813 37065 ft 475 kts 107°
2026-05-07 23:44 54.63884 -155.29512 37069 ft 475 kts 108°
2026-05-07 23:44 54.62784 -155.18227 37067 ft 476 kts 108°
2026-05-07 23:45 54.61673 -155.06957 37066 ft 475 kts 108°
2026-05-07 23:45 54.60570 -154.95763 37068 ft 473 kts 109°
2026-05-07 23:46 54.59464 -154.84543 37066 ft 473 kts 111°
2026-05-07 23:46 54.58322 -154.73279 37076 ft 473 kts 112°
2026-05-07 23:47 54.57166 -154.62096 37062 ft 468 kts 112°
2026-05-07 23:47 54.56004 -154.50970 37068 ft 470 kts 112°
2026-05-07 23:48 54.54842 -154.39874 37068 ft 472 kts 112°
2026-05-07 23:48 54.53662 -154.28711 37067 ft 473 kts 113°
2026-05-07 23:49 54.52473 -154.17490 37068 ft 469 kts 113°
2026-05-07 23:49 54.51298 -154.06509 37061 ft 466 kts 113°
2026-05-07 23:50 54.50092 -153.95445 37063 ft 470 kts 113°
2026-05-07 23:50 54.48867 -153.84255 37065 ft 469 kts 113°
2026-05-07 23:51 54.47652 -153.73218 37064 ft 469 kts 113°
2026-05-07 23:51 54.46410 -153.62073 37065 ft 471 kts 112°
2026-05-07 23:52 54.45179 -153.51025 37065 ft 468 kts 113°
2026-05-07 23:52 54.43921 -153.39923 37065 ft 468 kts 113°
2026-05-07 23:53 54.42670 -153.28963 37067 ft 467 kts 114°
2026-05-07 23:53 54.41395 -153.17909 37063 ft 469 kts 114°
2026-05-07 23:54 54.40107 -153.06793 37064 ft 469 kts 114°
2026-05-07 23:54 54.38817 -152.95763 37055 ft 471 kts 115°
2026-05-07 23:55 54.37507 -152.84666 37063 ft 475 kts 116°
2026-05-07 23:55 54.36158 -152.73413 37060 ft 481 kts 116°
2026-05-07 23:56 54.34807 -152.62169 37064 ft 478 kts 116°
2026-05-07 23:56 54.33436 -152.50856 37074 ft 481 kts 116°
2026-05-07 23:57 54.32068 -152.39619 37057 ft 478 kts 116°
2026-05-07 23:57 54.30675 -152.28352 37071 ft 479 kts 116°
2026-05-07 23:58 54.29297 -152.17209 37064 ft 477 kts 116°
2026-05-07 23:58 54.27888 -152.05992 37096 ft 478 kts 117°
2026-05-07 23:59 54.26490 -151.94849 37086 ft 476 kts 117°
2026-05-07 23:59 54.25084 -151.83804 37065 ft 470 kts 117°
2026-05-08 00:00 54.23665 -151.72778 37070 ft 472 kts 116°
2026-05-08 00:00 54.22248 -151.61847 37063 ft 476 kts 117°
2026-05-08 00:01 54.20811 -151.50792 37064 ft 475 kts 117°
2026-05-08 00:01 54.19369 -151.39760 37062 ft 472 kts 117°
2026-05-08 00:02 54.17926 -151.28853 37060 ft 470 kts 118°
2026-05-08 00:02 54.16452 -151.17862 37068 ft 474 kts 117°
2026-05-08 00:03 54.14979 -151.06905 37065 ft 474 kts 116°
2026-05-08 00:03 54.13479 -150.95860 37064 ft 478 kts 116°
2026-05-08 00:04 54.11962 -150.84758 37065 ft 485 kts 116°
2026-05-08 00:04 54.10421 -150.73489 37066 ft 487 kts 116°
2026-05-08 00:05 54.08854 -150.62141 37067 ft 493 kts 116°
2026-05-08 00:05 54.07263 -150.50722 37066 ft 496 kts 115°
2026-05-08 00:06 54.05667 -150.39331 37070 ft 497 kts 116°
2026-05-08 00:06 54.04042 -150.27830 37068 ft 493 kts 116°
2026-05-08 00:07 54.02424 -150.16547 37065 ft 493 kts 117°
2026-05-08 00:07 54.00786 -150.05183 37064 ft 494 kts 116°
2026-05-08 00:08 53.99124 -149.93779 37061 ft 491 kts 117°
2026-05-08 00:08 53.97416 -149.82487 37070 ft 492 kts 117°
2026-05-08 00:09 53.95711 -149.71249 37064 ft 492 kts 117°
2026-05-08 00:09 53.93980 -149.60002 37064 ft 495 kts 117°
2026-05-08 00:10 53.92229 -149.48679 37070 ft 495 kts 117°
2026-05-08 00:10 53.90472 -149.37344 37067 ft 494 kts 117°
2026-05-08 00:11 53.88693 -149.26059 37071 ft 497 kts 118°
2026-05-08 00:11 53.86916 -149.14769 37071 ft 491 kts 118°
2026-05-08 00:12 53.85147 -149.03607 37066 ft 494 kts 118°
2026-05-08 00:12 53.83333 -148.92357 37064 ft 498 kts 117°
2026-05-08 00:13 53.81479 -148.80904 37058 ft 502 kts 116°
2026-05-08 00:13 53.79606 -148.69334 37069 ft 507 kts 116°
2026-05-08 00:14 53.77728 -148.57783 37066 ft 510 kts 115°
2026-05-08 00:14 53.75849 -148.46268 37070 ft 504 kts 115°
2026-05-08 00:15 53.73951 -148.34804 37062 ft 508 kts 116°
2026-05-08 00:15 53.72031 -148.23251 37071 ft 506 kts 116°
2026-05-08 00:16 53.70104 -148.11784 37065 ft 505 kts 116°
2026-05-08 00:16 53.68176 -148.00343 37064 ft 504 kts 116°
2026-05-08 00:17 53.66228 -147.88925 37095 ft 504 kts 116°
2026-05-08 00:17 53.64282 -147.77519 37124 ft 504 kts 116°
2026-05-08 00:18 53.62321 -147.66126 37156 ft 504 kts 116°
2026-05-08 00:18 53.60345 -147.54701 37168 ft 505 kts 116°
2026-05-08 00:19 53.58344 -147.43214 37175 ft 506 kts 116°
2026-05-08 00:19 53.56348 -147.31822 37175 ft 504 kts 117°
2026-05-08 00:20 53.54332 -147.20410 37179 ft 501 kts 117°
2026-05-08 00:20 53.52324 -147.09117 37172 ft 501 kts 117°
2026-05-08 00:21 53.50295 -146.97815 37171 ft 504 kts 116°
2026-05-08 00:21 53.48242 -146.86462 37176 ft 506 kts 115°
2026-05-08 00:22 53.46186 -146.75061 37172 ft 507 kts 115°
2026-05-08 00:22 53.44119 -146.63669 37173 ft 506 kts 115°
2026-05-08 00:23 53.42037 -146.52301 37169 ft 509 kts 115°
2026-05-08 00:23 53.39925 -146.40843 37173 ft 508 kts 115°
2026-05-08 00:24 53.37821 -146.29466 37170 ft 505 kts 116°
2026-05-08 00:24 53.35709 -146.18196 37170 ft 507 kts 116°
2026-05-08 00:25 53.33585 -146.06889 37170 ft 506 kts 116°
2026-05-08 00:25 53.31442 -145.95557 37169 ft 507 kts 116°
2026-05-08 00:26 53.29298 -145.84286 37170 ft 508 kts 116°
2026-05-08 00:26 53.27137 -145.72955 37170 ft 506 kts 116°
2026-05-08 00:27 53.24972 -145.61702 37171 ft 506 kts 116°
2026-05-08 00:27 53.22802 -145.50472 37172 ft 505 kts 116°
2026-05-08 00:28 53.20608 -145.39214 37171 ft 506 kts 116°
2026-05-08 00:28 53.18415 -145.28008 37168 ft 505 kts 117°
2026-05-08 00:29 53.16192 -145.16731 37169 ft 506 kts 117°
2026-05-08 00:29 53.13959 -145.05452 37171 ft 509 kts 117°
2026-05-08 00:30 53.11720 -144.94217 37166 ft 512 kts 118°
2026-05-08 00:30 53.09436 -144.82844 37173 ft 514 kts 118°
2026-05-08 00:31 53.07150 -144.71477 37171 ft 512 kts 117°
2026-05-08 00:31 53.04877 -144.60249 37171 ft 510 kts 117°
2026-05-08 00:32 53.02594 -144.49033 37173 ft 508 kts 117°
2026-05-08 00:32 53.00301 -144.37852 37173 ft 507 kts 117°
2026-05-08 00:33 52.98008 -144.26727 37169 ft 504 kts 118°
2026-05-08 00:33 52.95707 -144.15640 37171 ft 504 kts 118°
2026-05-08 00:34 52.93407 -144.04623 37171 ft 504 kts 118°
2026-05-08 00:34 52.91089 -143.93555 37171 ft 503 kts 118°
2026-05-08 00:35 52.88763 -143.82521 37175 ft 504 kts 118°
2026-05-08 00:35 52.86429 -143.71500 37171 ft 503 kts 118°
2026-05-08 00:36 52.84084 -143.60496 37171 ft 503 kts 118°
2026-05-08 00:36 52.81737 -143.49547 37173 ft 504 kts 118°
2026-05-08 00:37 52.79372 -143.38551 37170 ft 503 kts 118°
2026-05-08 00:38 52.75832 -143.22220 37171 ft 502 kts 119°
2026-05-08 00:38 52.73459 -143.11356 37171 ft 502 kts 119°
2026-05-08 00:39 52.71088 -143.00551 37172 ft 502 kts 119°
2026-05-08 00:39 52.68691 -142.89717 37175 ft 504 kts 118°
2026-05-08 00:40 52.66260 -142.78804 37193 ft 509 kts 117°
2026-05-08 00:40 52.63829 -142.67866 37213 ft 509 kts 117°
2026-05-08 00:41 52.61374 -142.56880 37227 ft 510 kts 117°
2026-05-08 00:41 52.58918 -142.45946 37230 ft 509 kts 117°
2026-05-08 00:42 52.56450 -142.35045 37234 ft 510 kts 117°
2026-05-08 00:42 52.53976 -142.24175 37233 ft 509 kts 118°
2026-05-08 00:43 52.51481 -142.13263 37235 ft 509 kts 118°
2026-05-08 00:43 52.48982 -142.02400 37234 ft 509 kts 118°
2026-05-08 00:44 52.46489 -141.91612 37235 ft 508 kts 118°
2026-05-08 00:44 52.43969 -141.80766 37234 ft 508 kts 118°
2026-05-08 00:45 52.41442 -141.69949 37234 ft 509 kts 118°
2026-05-08 00:45 52.38908 -141.59148 37235 ft 509 kts 118°
2026-05-08 00:46 52.36358 -141.48331 37235 ft 509 kts 118°
2026-05-08 00:46 52.33790 -141.37495 37235 ft 508 kts 118°
2026-05-08 00:47 52.31227 -141.26737 37233 ft 508 kts 119°
2026-05-08 00:47 52.28657 -141.16005 37233 ft 508 kts 119°
2026-05-08 00:48 52.26071 -141.05275 37232 ft 510 kts 119°
2026-05-08 00:48 52.23439 -140.94438 37230 ft 515 kts 118°
2026-05-08 00:49 52.20786 -140.83545 37225 ft 520 kts 117°
2026-05-08 00:49 52.18132 -140.72636 37221 ft 521 kts 117°
2026-05-08 00:50 52.15449 -140.61673 37218 ft 521 kts 117°
2026-05-08 00:50 52.12752 -140.50734 37218 ft 521 kts 117°
2026-05-08 00:51 52.10043 -140.39807 37219 ft 520 kts 118°
2026-05-08 00:51 52.07312 -140.28857 37215 ft 519 kts 118°
2026-05-08 00:52 52.04584 -140.17993 37216 ft 519 kts 118°
2026-05-08 00:52 52.01850 -140.07144 37216 ft 521 kts 118°
2026-05-08 00:53 51.99473 -139.96019 37217 ft 526 kts 111°
2026-05-08 00:53 51.97659 -139.84456 37217 ft 527 kts 109°
2026-05-08 00:54 51.95913 -139.72903 37217 ft 527 kts 109°
2026-05-08 00:54 51.94149 -139.61394 37218 ft 527 kts 109°
2026-05-08 00:55 51.92357 -139.49846 37217 ft 527 kts 109°
2026-05-08 00:55 51.90556 -139.38336 37217 ft 527 kts 109°
2026-05-08 00:56 51.88754 -139.26886 37218 ft 527 kts 110°
2026-05-08 00:56 51.86918 -139.15328 37217 ft 527 kts 110°
2026-05-08 00:57 51.85078 -139.03874 37217 ft 527 kts 109°
2026-05-08 00:57 51.83230 -138.92423 37216 ft 527 kts 108°
2026-05-08 00:58 51.81383 -138.80977 37217 ft 527 kts 108°
2026-05-08 00:58 51.79517 -138.69507 37217 ft 527 kts 108°
2026-05-08 00:59 51.77641 -138.58084 37216 ft 527 kts 108°
2026-05-08 00:59 51.75750 -138.46649 37216 ft 527 kts 109°
2026-05-08 01:00 51.73855 -138.35265 37216 ft 527 kts 108°
2026-05-08 01:00 51.71944 -138.23851 37216 ft 526 kts 109°
2026-05-08 01:01 51.70024 -138.12480 37216 ft 527 kts 109°
2026-05-08 01:01 51.68083 -138.01050 37216 ft 526 kts 109°
2026-05-08 01:02 51.66142 -137.89703 37216 ft 526 kts 109°
2026-05-08 01:02 51.64180 -137.78305 37217 ft 527 kts 109°
2026-05-08 01:03 51.62214 -137.66946 37216 ft 527 kts 109°
2026-05-08 01:03 51.60230 -137.55568 37217 ft 527 kts 109°
2026-05-08 01:04 51.58241 -137.44220 37216 ft 527 kts 109°
2026-05-08 01:04 51.56247 -137.32928 37211 ft 526 kts 110°
2026-05-08 01:05 51.54236 -137.21606 37202 ft 526 kts 110°
2026-05-08 01:05 51.52219 -137.10321 37191 ft 526 kts 110°
2026-05-08 01:06 51.50191 -136.99036 37181 ft 527 kts 110°
2026-05-08 01:06 51.48132 -136.87692 37174 ft 533 kts 109°
2026-05-08 01:07 51.46038 -136.76253 37172 ft 537 kts 109°
2026-05-08 01:07 51.43932 -136.64741 37172 ft 538 kts 108°
2026-05-08 01:08 51.41825 -136.53279 37172 ft 539 kts 109°
2026-05-08 01:08 51.39692 -136.41762 37172 ft 539 kts 109°
2026-05-08 01:09 51.37545 -136.30270 37169 ft 538 kts 109°
2026-05-08 01:09 51.35406 -136.18881 37171 ft 538 kts 109°
2026-05-08 01:10 51.33240 -136.07431 37171 ft 538 kts 109°
2026-05-08 01:10 51.31056 -135.95955 37166 ft 538 kts 109°
2026-05-08 01:11 51.28868 -135.84523 37158 ft 539 kts 110°
2026-05-08 01:11 51.26686 -135.73175 37155 ft 538 kts 110°
2026-05-08 01:12 51.24472 -135.61758 37153 ft 538 kts 109°
2026-05-08 01:12 51.22250 -135.50351 37153 ft 538 kts 109°
2026-05-08 01:13 51.20018 -135.38965 37153 ft 538 kts 109°
2026-05-08 01:13 51.17784 -135.27626 37150 ft 537 kts 110°
2026-05-08 01:14 51.15532 -135.16278 37152 ft 537 kts 110°
2026-05-08 01:14 51.13264 -135.04933 37151 ft 538 kts 110°
2026-05-08 01:15 51.10987 -134.93634 37152 ft 540 kts 109°
2026-05-08 01:15 51.08686 -134.82246 37151 ft 542 kts 109°
2026-05-08 01:16 51.06381 -134.70862 37152 ft 542 kts 109°
2026-05-08 01:16 51.04044 -134.59451 37152 ft 542 kts 109°
2026-05-08 01:17 51.01790 -134.48105 37154 ft 541 kts 106°
2026-05-08 01:17 51.00162 -134.36447 37153 ft 539 kts 99°
2026-05-08 01:18 50.99353 -134.24666 37152 ft 538 kts 94°
2026-05-08 01:18 50.98882 -134.12823 37152 ft 537 kts 94°
2026-05-08 01:19 50.98405 -134.01015 37152 ft 537 kts 94°
2026-05-08 01:19 50.97899 -133.89171 37153 ft 537 kts 94°
2026-05-08 01:20 50.97368 -133.77304 37152 ft 536 kts 94°
2026-05-08 01:20 50.96830 -133.65543 37152 ft 536 kts 94°
2026-05-08 01:21 50.96275 -133.53773 37154 ft 535 kts 94°
2026-05-08 01:21 50.95713 -133.42006 37153 ft 534 kts 94°
2026-05-08 01:22 50.95135 -133.30226 37151 ft 534 kts 95°
2026-05-08 01:22 50.94547 -133.18472 37153 ft 533 kts 95°
2026-05-08 01:23 50.93948 -133.06807 37153 ft 530 kts 95°
2026-05-08 01:23 50.93344 -132.95169 37154 ft 526 kts 94°
2026-05-08 01:24 50.92737 -132.83630 37153 ft 524 kts 94°
2026-05-08 01:24 50.92120 -132.72183 37153 ft 524 kts 94°
2026-05-08 01:25 50.91486 -132.60651 37152 ft 523 kts 94°
2026-05-08 01:25 50.90842 -132.49161 37153 ft 522 kts 94°
2026-05-08 01:26 50.90192 -132.37735 37154 ft 522 kts 94°
2026-05-08 01:26 50.89522 -132.26204 37152 ft 521 kts 95°
2026-05-08 01:27 50.88842 -132.14685 37153 ft 521 kts 95°
2026-05-08 01:27 50.88148 -132.03136 37153 ft 520 kts 95°
2026-05-08 01:28 50.87448 -131.91652 37153 ft 520 kts 95°
2026-05-08 01:28 50.86739 -131.80202 37152 ft 520 kts 95°
2026-05-08 01:29 50.86017 -131.68751 37152 ft 520 kts 95°
2026-05-08 01:29 50.85284 -131.57253 37152 ft 520 kts 95°
2026-05-08 01:30 50.84544 -131.45837 37152 ft 520 kts 95°
2026-05-08 01:30 50.83790 -131.34389 37152 ft 520 kts 96°
2026-05-08 01:31 50.83019 -131.22865 37151 ft 520 kts 96°
2026-05-08 01:31 50.82241 -131.11410 37153 ft 520 kts 96°
2026-05-08 01:32 50.81448 -130.99950 37151 ft 520 kts 96°
2026-05-08 01:32 50.80642 -130.88509 37151 ft 523 kts 95°
2026-05-08 01:33 50.79813 -130.76901 37151 ft 527 kts 95°
2026-05-08 01:33 50.78975 -130.65245 37152 ft 530 kts 95°
2026-05-08 01:34 50.78131 -130.53615 37152 ft 530 kts 95°
2026-05-08 01:34 50.77274 -130.42001 37152 ft 530 kts 95°
2026-05-08 01:35 50.76393 -130.30302 37150 ft 530 kts 95°
2026-05-08 01:35 50.75502 -130.18605 37150 ft 530 kts 95°
2026-05-08 01:36 50.74603 -130.06984 37143 ft 531 kts 96°
2026-05-08 01:36 50.73679 -129.95186 37133 ft 530 kts 96°
2026-05-08 01:37 50.72762 -129.83621 37127 ft 530 kts 96°
2026-05-08 01:37 50.71832 -129.72043 37126 ft 531 kts 96°
2026-05-08 01:38 50.70889 -129.60439 37125 ft 530 kts 95°
2026-05-08 01:38 50.69935 -129.48837 37126 ft 530 kts 96°
2026-05-08 01:39 50.68974 -129.37299 37125 ft 530 kts 96°
2026-05-08 01:39 50.67998 -129.25731 37125 ft 530 kts 96°
2026-05-08 01:40 50.67007 -129.14131 37125 ft 530 kts 96°
2026-05-08 01:40 50.66005 -129.02600 37127 ft 529 kts 96°
2026-05-08 01:41 50.64984 -128.90967 37127 ft 526 kts 95°
2026-05-08 01:41 50.63972 -128.79527 37125 ft 523 kts 95°
2026-05-08 01:42 50.62957 -128.68140 37125 ft 523 kts 95°
2026-05-08 01:42 50.61923 -128.56723 37125 ft 523 kts 95°
2026-05-08 01:43 50.60880 -128.45325 37126 ft 523 kts 95°
2026-05-08 01:43 50.59832 -128.34003 37124 ft 524 kts 96°
2026-05-08 01:44 50.58763 -128.22578 37125 ft 523 kts 96°
2026-05-08 01:44 50.57684 -128.11163 37126 ft 523 kts 96°
2026-05-08 01:45 50.56603 -127.99845 37126 ft 523 kts 96°
2026-05-08 01:45 50.55508 -127.88496 37126 ft 523 kts 96°
2026-05-08 01:46 50.54398 -127.77115 37125 ft 523 kts 96°
2026-05-08 01:46 50.53277 -127.65743 37126 ft 524 kts 96°
2026-05-08 01:47 50.52145 -127.54396 37125 ft 524 kts 96°
2026-05-08 01:47 50.51002 -127.43021 37126 ft 523 kts 96°
2026-05-08 01:48 50.49267 -127.25997 37125 ft 523 kts 96°
2026-05-08 01:48 50.48089 -127.14587 37126 ft 523 kts 97°
2026-05-08 01:49 50.46914 -127.03283 37126 ft 520 kts 97°
2026-05-08 01:49 50.45731 -126.92014 37126 ft 517 kts 97°
2026-05-08 01:50 50.44546 -126.80902 37127 ft 516 kts 97°
2026-05-08 01:50 50.43347 -126.69756 37126 ft 516 kts 97°
2026-05-08 01:51 50.42138 -126.58598 37126 ft 516 kts 97°
2026-05-08 01:51 50.40914 -126.47412 37126 ft 516 kts 97°
2026-05-08 01:52 50.39679 -126.36208 37121 ft 516 kts 97°
2026-05-08 01:52 50.38440 -126.25069 36983 ft 514 kts 98°
2026-05-08 01:53 50.37822 -126.19512 36728 ft 507 kts 98°
2026-05-08 01:53 50.37212 -126.14079 36479 ft 501 kts 98°
2026-05-08 01:53 50.36607 -126.08723 36226 ft 496 kts 98°
2026-05-08 01:53 50.36006 -126.03437 35980 ft 493 kts 98°
2026-05-08 01:54 50.35393 -125.98085 35726 ft 493 kts 98°
2026-05-08 01:54 50.34786 -125.92811 35477 ft 493 kts 98°
2026-05-08 01:54 50.34175 -125.87535 35229 ft 494 kts 98°
2026-05-08 01:54 50.33559 -125.82216 34980 ft 495 kts 98°
2026-05-08 01:55 50.32940 -125.76882 34728 ft 495 kts 98°
2026-05-08 01:55 50.32326 -125.71609 34481 ft 496 kts 98°
2026-05-08 01:55 50.31704 -125.66292 34232 ft 496 kts 98°
2026-05-08 01:55 50.31075 -125.60934 33982 ft 496 kts 98°
2026-05-08 01:56 50.30449 -125.55623 33734 ft 497 kts 98°
2026-05-08 01:56 50.29820 -125.50317 33473 ft 497 kts 98°
2026-05-08 01:56 50.29182 -125.44939 33105 ft 498 kts 98°
2026-05-08 01:56 50.28553 -125.39651 32615 ft 500 kts 98°
2026-05-08 01:57 50.27902 -125.34181 32006 ft 503 kts 99°
2026-05-08 01:57 50.27251 -125.28770 31353 ft 507 kts 99°
2026-05-08 01:57 50.26591 -125.23328 30668 ft 510 kts 99°
2026-05-08 01:57 50.25920 -125.17815 29958 ft 514 kts 99°
2026-05-08 01:58 50.25239 -125.12259 29235 ft 516 kts 99°
2026-05-08 01:58 50.24544 -125.06605 28504 ft 518 kts 99°
2026-05-08 01:58 50.23869 -125.01132 28103 ft 512 kts 99°
2026-05-08 01:58 50.23188 -124.95642 27766 ft 507 kts 99°
2026-05-08 01:59 50.22522 -124.90304 27367 ft 501 kts 99°
2026-05-08 01:59 50.21854 -124.84963 26540 ft 495 kts 99°
2026-05-08 01:59 50.21201 -124.79748 25811 ft 490 kts 99°
2026-05-08 01:59 50.20470 -124.74528 25326 ft 491 kts 102°
2026-05-08 02:00 50.19564 -124.69373 24856 ft 492 kts 105°
2026-05-08 02:00 50.18557 -124.64230 24401 ft 491 kts 105°
2026-05-08 02:00 50.17547 -124.59188 23958 ft 489 kts 106°
2026-05-08 02:00 50.16514 -124.54060 23566 ft 487 kts 106°
2026-05-08 02:01 50.15509 -124.49058 23289 ft 482 kts 105°
2026-05-08 02:01 50.14520 -124.44128 23008 ft 477 kts 105°
2026-05-08 02:01 50.13521 -124.39158 22729 ft 472 kts 105°
2026-05-08 02:01 50.12544 -124.34301 22458 ft 467 kts 107°
2026-05-08 02:02 50.11573 -124.29479 22149 ft 463 kts 107°
2026-05-08 02:02 50.10605 -124.24686 21802 ft 460 kts 107°
2026-05-08 02:02 50.09639 -124.19925 21449 ft 458 kts 107°
2026-05-08 02:02 50.08687 -124.15240 21028 ft 453 kts 107°
2026-05-08 02:03 50.07733 -124.10561 20457 ft 451 kts 107°
2026-05-08 02:03 50.06774 -124.05871 20061 ft 446 kts 107°
2026-05-08 02:03 50.05842 -124.01317 19162 ft 440 kts 107°
2026-05-08 02:03 50.04913 -123.96796 18342 ft 436 kts 108°
2026-05-08 02:04 50.03571 -123.92556 17750 ft 441 kts 125°
2026-05-08 02:04 50.01422 -123.89143 17412 ft 438 kts 144°
2026-05-08 02:04 49.98795 -123.86754 17169 ft 432 kts 153°
2026-05-08 02:04 49.96151 -123.84680 16850 ft 425 kts 154°
2026-05-08 02:05 49.93499 -123.82627 16227 ft 420 kts 154°
2026-05-08 02:05 49.90908 -123.80594 15952 ft 416 kts 153°
2026-05-08 02:05 49.88322 -123.78533 15653 ft 413 kts 153°
2026-05-08 02:05 49.85750 -123.76470 15329 ft 411 kts 153°
2026-05-08 02:06 49.83211 -123.74525 15028 ft 409 kts 156°
2026-05-08 02:06 49.80557 -123.72920 14729 ft 406 kts 162°
2026-05-08 02:06 49.77829 -123.71725 14424 ft 403 kts 167°
2026-05-08 02:06 49.75129 -123.70753 14126 ft 401 kts 168°
2026-05-08 02:07 49.72406 -123.69804 13822 ft 399 kts 168°
2026-05-08 02:07 49.69682 -123.68847 13517 ft 397 kts 167°
2026-05-08 02:07 49.67021 -123.67899 13120 ft 390 kts 167°
2026-05-08 02:07 49.64381 -123.66956 12601 ft 380 kts 167°
2026-05-08 02:08 49.61839 -123.66048 12089 ft 368 kts 167°
2026-05-08 02:08 49.59402 -123.65180 11623 ft 359 kts 167°
2026-05-08 02:08 49.56959 -123.64311 11400 ft 354 kts 167°
2026-05-08 02:08 49.54592 -123.63469 11250 ft 350 kts 167°
2026-05-08 02:09 49.52223 -123.62627 11029 ft 345 kts 167°
2026-05-08 02:09 49.49916 -123.61807 10999 ft 337 kts 167°
2026-05-08 02:09 49.47658 -123.61001 10995 ft 329 kts 167°
2026-05-08 02:09 49.45424 -123.60207 10991 ft 320 kts 167°
2026-05-08 02:10 49.43280 -123.59446 10985 ft 311 kts 167°
2026-05-08 02:10 49.41212 -123.58711 10983 ft 302 kts 167°
2026-05-08 02:10 49.39169 -123.57989 10987 ft 299 kts 168°
2026-05-08 02:10 49.37149 -123.57243 10984 ft 301 kts 161°
2026-05-08 02:11 49.35365 -123.55521 10957 ft 304 kts 131°
2026-05-08 02:11 49.34353 -123.52702 10846 ft 307 kts 103°
2026-05-08 02:11 49.33997 -123.49429 10589 ft 307 kts 97°
2026-05-08 02:11 49.33721 -123.46205 10420 ft 302 kts 97°
2026-05-08 02:12 49.33428 -123.42989 10023 ft 298 kts 97°
2026-05-08 02:12 49.33121 -123.39861 9828 ft 295 kts 98°
2026-05-08 02:12 49.32805 -123.36769 9511 ft 290 kts 98°
2026-05-08 02:12 49.32487 -123.33722 9233 ft 284 kts 99°
2026-05-08 02:13 49.32179 -123.30808 8998 ft 276 kts 99°
2026-05-08 02:13 49.31868 -123.27877 8727 ft 273 kts 99°
2026-05-08 02:13 49.31563 -123.25021 8618 ft 270 kts 99°
2026-05-08 02:13 49.31263 -123.22201 8525 ft 266 kts 99°
2026-05-08 02:14 49.30965 -123.19381 8430 ft 263 kts 99°
2026-05-08 02:14 49.30672 -123.16645 8340 ft 260 kts 99°
2026-05-08 02:14 49.30381 -123.13916 8201 ft 256 kts 99°
2026-05-08 02:14 49.30094 -123.11236 7941 ft 252 kts 99°
2026-05-08 02:15 49.29805 -123.08564 7709 ft 249 kts 99°
2026-05-08 02:15 49.29526 -123.05983 7474 ft 244 kts 99°
2026-05-08 02:15 49.29249 -123.03427 7085 ft 239 kts 99°
2026-05-08 02:15 49.28977 -123.00916 6716 ft 235 kts 99°
2026-05-08 02:16 49.28676 -122.98495 6513 ft 231 kts 102°
2026-05-08 02:16 49.28372 -122.96079 6309 ft 227 kts 101°
2026-05-08 02:16 49.28081 -122.93690 6120 ft 222 kts 101°
2026-05-08 02:16 49.27803 -122.91393 5967 ft 215 kts 101°
2026-05-08 02:17 49.27531 -122.89159 5821 ft 208 kts 100°
2026-05-08 02:17 49.27273 -122.86995 5692 ft 200 kts 101°
2026-05-08 02:17 49.27034 -122.84915 5545 ft 194 kts 101°
2026-05-08 02:17 49.26808 -122.82903 5318 ft 194 kts 100°
2026-05-08 02:18 49.26460 -122.80866 5026 ft 196 kts 122°
2026-05-08 02:18 49.25436 -122.79538 5004 ft 194 kts 161°
2026-05-08 02:18 49.24137 -122.79180 4932 ft 187 kts 180°
2026-05-08 02:18 49.22840 -122.79216 4672 ft 188 kts 184°
2026-05-08 02:19 49.21529 -122.79327 4436 ft 188 kts 185°
2026-05-08 02:19 49.20226 -122.79448 4220 ft 187 kts 185°
2026-05-08 02:19 49.18923 -122.79673 4026 ft 184 kts 200°
2026-05-08 02:19 49.17940 -122.80861 4007 ft 185 kts 235°
2026-05-08 02:20 49.17315 -122.82592 4012 ft 185 kts 244°
2026-05-08 02:20 49.16785 -122.84390 4000 ft 186 kts 252°
2026-05-08 02:20 49.16700 -122.86405 3949 ft 194 kts 276°
2026-05-08 02:20 49.16920 -122.88450 3848 ft 195 kts 279°
2026-05-08 02:21 49.17160 -122.90476 3747 ft 187 kts 278°
2026-05-08 02:21 49.17355 -122.92443 3586 ft 185 kts 277°
2026-05-08 02:21 49.17517 -122.94413 3315 ft 186 kts 275°
2026-05-08 02:21 49.17763 -122.96389 2957 ft 190 kts 282°
2026-05-08 02:22 49.18067 -122.98337 2734 ft 185 kts 281°
2026-05-08 02:22 49.18311 -123.00249 2442 ft 184 kts 279°
2026-05-08 02:22 49.18540 -123.02193 2046 ft 187 kts 278°
2026-05-08 02:22 49.18751 -123.04160 1681 ft 186 kts 277°
2026-05-08 02:23 49.18940 -123.06080 1470 ft 177 kts 276°
2026-05-08 02:23 49.19133 -123.07936 1177 ft 174 kts 277°
2026-05-08 02:23 49.19327 -123.09733 1005 ft 166 kts 277°
2026-05-08 02:23 49.19529 -123.11496 710 ft 167 kts 277°
2026-05-08 02:24 49.19705 -123.13249 462 ft 164 kts 278°
2026-05-08 02:24 49.19912 -123.14957 222 ft 162 kts 278°
2026-05-08 02:24 49.20129 -123.16643 28 ft 152 kts 279°
2026-05-08 02:24 49.20275 -123.18014 18 ft 105 kts 280°
2026-05-08 02:25 49.20381 -123.18867 18 ft 64 kts 278°
2026-05-08 02:25 49.20362 -123.19327 18 ft 25 kts 251°
2026-05-08 02:25 49.20318 -123.19515 18 ft 15 kts 250°
2026-05-08 02:25 49.20274 -123.19589 18 ft 8 kts 163°
2026-05-08 02:26 49.20242 -123.19521 18 ft 9 kts 104°
2026-05-08 02:26 49.20225 -123.19405 18 ft 12 kts 102°
2026-05-08 02:26 49.20207 -123.19257 18 ft 15 kts 100°
2026-05-08 02:26 49.20189 -123.19085 18 ft 17 kts 99°
2026-05-08 02:27 49.20168 -123.18893 18 ft 19 kts 100°
2026-05-08 02:27 49.20147 -123.18718 18 ft 14 kts 100°
2026-05-08 02:27 49.20136 -123.18622 18 ft 8 kts 99°
2026-05-08 02:27 49.20115 -123.18535 18 ft 8 kts 136°
2026-05-08 02:28 49.20074 -123.18509 18 ft 7 kts 152°
2026-05-08 02:28 49.20042 -123.18424 18 ft 11 kts 100°
2026-05-08 02:28 49.20027 -123.18291 18 ft 12 kts 101°
2026-05-08 02:28 49.20010 -123.18160 18 ft 11 kts 101°
2026-05-08 02:29 49.19994 -123.18028 18 ft 8 kts 100°
2026-05-08 02:29 49.19991 -123.17999 18 ft 1 kts 99°
2026-05-08 02:29 49.19988 -123.17977 18 ft 4 kts 99°
2026-05-08 02:29 49.19980 -123.17924 18 ft 4 kts 123°
2026-05-08 02:30 49.19949 -123.17909 18 ft 0 kts 201°
2026-05-08 02:30 49.19931 -123.17918 18 ft 4 kts 198°
2026-05-08 02:30 49.19912 -123.17928 18 ft 1 kts 197°
2026-05-08 02:30 49.19909 -123.17929 18 ft 0 kts 197°
2026-05-08 02:31 49.19909 -123.17928 18 ft 0 kts 197°